Other Public Products
Issued by NWS Grand Forks, ND

Home | Current Version | Previous Version | Graphics & Text | Print | Product List | Glossary On
Versions: 1 2 3 4 5 6 7 8 9 10 11 12 13 14 15 16 17 18 19 20 21 22 23 24 25 26 27 28 29 30 31 32 33 34 35 36 37 38 39 40 41 42 43 44 45 46 47 48 49 50
055
FPUS83 KFGF 242331
OPUFGF
PRAIRIE TO PINES WEATHER ROUNDUP
NATIONAL WEATHER SERVICE EASTERN NORTH DAKOTA/GRAND FORKS ND
500 PM CST TUE JAN 24 2017

 **SATELLITE DATA USED TO AUGMENT SKY COVER AT AUTOMATED STATIONS**
 *****  WEATHER ACROSS EASTERN NORTH DAKOTA  *****

CITY           SKY/WX    TMP DP  RH WIND       PRES   REMARKS
GRAND FORKS    CLOUDY    28  22  78 W3        29.89R
GRAND FORKS AF CLOUDY    27  23  86 CALM      29.89R
GRAND CITY NWS NOT AVBL
BUXTON           N/A     27  25  93 NW5         N/A  WCI  21
DEVILS LAKE    CLOUDY    24  21  88 W9        29.88R WCI  14
FARGO          CLOUDY    30  23  75 N9        29.86F WCI  22
WAHPETON ARPT  CLOUDY    28  23  80 N9        29.84F WCI  20
$$

 *****  WEATHER ACROSS CENTRAL AND WESTERN NORTH DAKOTA  *****

CITY           SKY/WX    TMP DP  RH WIND       PRES   REMARKS
JAMESTOWN      CLOUDY    24  20  84 N15       29.84S WCI  11
BISMARCK       CLOUDY    26  18  71 NW10      29.89R WCI  16
MINOT          CLOUDY    22  16  78 NW17      29.90R WCI   8
MINOT AFB      FAIR      19  16  86 NW16      29.89R WCI   5
GARRISON         N/A     22  17  81 NW14      29.89R WCI   9
WILLISTON      CLOUDY    18  13  80 NW12      29.94R WCI   5
DICKINSON      FAIR      18  13  80 NW10      29.85R WCI   6
HETTINGER      CLOUDY    19  14  81 NW13      29.88R WCI   6
$$

 *****  OTHER OBSERVATIONS NORTHEAST NORTH DAKOTA  *****

CITY           SKY/WX    TMP DP  RH WIND       PRES   REMARKS
WALHALLA       NOT AVBL
LANGDON        NOT AVBL
CAVALIER       CLOUDY    28  25  86 N6        29.89S WCI  22
GRAFTON        CLOUDY    28  27  93 N5        29.91R WCI  23
CANDO          NOT AVBL
FORT TOTTEN      N/A     23  22  98 NW5       29.95S WCI  17
ROLLA            N/A    N/A N/A N/A MISG        N/A
RUGBY            N/A     21  18  86 NW16      29.88R WCI   7
 ***** THE ABOVE OBSERVATIONS ARE NON NWS ARE NOT QUALITY
        CONTROLLED AND MAY MIS-REPORT RAIN FOR SNOW...
$$

 *****  OTHER OBSERVATIONS SOUTHEAST NORTH DAKOTA *****

CITY           SKY/WX    TMP DP  RH WIND       PRES   REMARKS
COOPERSTOWN    CLOUDY    25  23  93 N13       29.86S WCI  13
VALLEY CITY    MIX PCPN  23  23 100 N15       29.87S WCI  10
OAKES          NOT AVBL
GWINNER        CLOUDY    28  27  93 N15       29.84S WCI  17
SHEYENNE NWR     N/A     27  21  78 N7        29.95S WCI  19
BUFFALO          N/A     24  19  80 NW10        N/A  WCI  14
WYNDMERE         N/A     27  23  86 N10         N/A  WCI  17
 ***** THE ABOVE OBSERVATIONS ARE NON NWS ARE NOT QUALITY
       CONTROLLED AND MAY MIS-REPORT RAIN FOR SNOW...
$$

  *****  WEATHER ACROSS NORTHERN MINNESOTA  *****

CITY           SKY/WX    TMP DP  RH WIND       PRES   REMARKS
FLAG ISLAND    CLOUDY    27  23  86 SW5       29.85R WCI  21
WARROAD        CLOUDY    27  23  86 SW3       29.87R
ROSEAU         MOCLDY    28  23  80 SW5       29.87R WCI  23
HALLOCK        CLOUDY    28  27  93 NW6       29.89R WCI  22
THF RVR FALLS    N/A     25  22  88 W6        29.88  WCI  18
HALSTAD          N/A     26  21  82 N10         N/A  WCI  16
FOSSTON        CLOUDY    23  19  86 N5        29.87R WCI  17
BAUDETTE       CLOUDY    26  21  81 CALM      29.86R
WASKISH        CLOUDY    25  21  86 W3        29.87R
CROOKSTON      CLOUDY    27  23  86 CALM      29.90R
$$
  *****  WEATHER ACROSS CENTRAL AND WEST MINNESOTA  *****

CITY           SKY/WX    TMP DP  RH WIND       PRES   REMARKS
BEMIDJI        CLOUDY    26  22  84 CALM      29.85R
PARK RAPIDS    CLOUDY    30  22  72 N5        29.81F
WADENA         CLOUDY    28  25  86 CALM      29.80R
DETROIT LAKES  CLOUDY    27  25  93 N8        29.84R WCI  18
MOORHEAD       CLOUDY    27  21  80 N10       29.87F WCI  17
FERGUS FALLS   CLOUDY    28  25  86 N8        29.87S WCI  20
ELBOW LAKE     CLOUDY    30  26  86 E7        29.81S FOG     WCI  23
MORRIS MN      CLOUDY    32  28  86 NE7       29.79S
STAPLES        CLOUDY    28  25  86 N5        29.80S WCI  23
WHEATON        CLOUDY    28  27  93 N12       29.84S WCI  18
$$
  *****  WEATHER ELSEWHERE ACROSS MINNESOTA  *****

CITY           SKY/WX    TMP DP  RH WIND       PRES   REMARKS
DULUTH         CLOUDY    31  25  78 N8        29.81F WCI  23
INTRNTL FALLS  CLOUDY    25  20  81 NW5       29.85R WCI  19
ELY            CLOUDY    28  27  93 NW3       29.84R
CLOQUET        CLOUDY    30  25  80 N3        29.81F
BRAINERD       CLOUDY    29  24  82 N7        29.81S WCI  22
HIBBING        CLOUDY    27  24  89 SE3       29.84R
ALEXANDRIA     CLOUDY    31  25  78 NE9       29.80R WCI  23
SAINT CLOUD    CLOUDY    31  26  82 E7        29.81R WCI  24
MINNEAPOLIS    CLOUDY    32  26  78 NE8       29.80F WCI  25
$$

  *****  WEATHER ACROSS SOUTH DAKOTA  *****

CITY           SKY/WX    TMP DP  RH WIND       PRES   REMARKS
SIOUX FALLS    SNOW      30  29  96 NE17      29.69R VSB 1/2 WCI  18
BROOKINGS      CLOUDY    28  26  92 E9G17     29.72S FOG     WCI  19
WATERTOWN      CLOUDY    29  26  89 NE13      29.74S WCI  19
HURON          LGT SNOW  30  29  96 NE10      29.78R FOG     WCI  21
SISSETON         N/A     29  28  96 N13       29.81S WCI  19
ABERDEEN       FLURRIES  25  20  81 N16       29.84R WCI  12
MITCHELL       LGT SNOW  31  30  96 NE16      29.73R VSB 3/4 WCI  20
PIERRE         FOG       22  19  89 N24       29.80R VSB 1/2 WCI   5
MOBRIDGE       LGT SNOW  24  18  77 N12       29.83R WCI  13
RAPID CITY     LGT SNOW  20  17  88 N21       29.82R VSB 1   WCI   4
$$

  *****  SOME WEATHER IN NEARBY STATES *****

CITY           SKY/WX    TMP DP  RH WIND       PRES   REMARKS
GLASGOW MT     CLOUDY    19  12  74 NW10      29.94R WCI   7
GREAT FALLS MT CLOUDY    30  16  56 W3        29.90R
CHEYENNE WY    CLOUDY    16  12  84 N15       29.64R WCI   1
SCOTTSBLUFF NE CLOUDY    22  14  71 N16       29.74R WCI   8
OMAHA NE       CLOUDY    35  28  75 E12       29.56R
DES MOINES IA  CLOUDY    33  30  88 E17G25    29.60F WCI  22
DAVENPORT IA   CLOUDY    35  32  88 E16       29.73F
CHICAGO IL     CLOUDY    36  31  82 S3        29.83R
EAU CLAIRE WI  CLOUDY    34  29  82 CALM      29.81S
LA CROSSE WI   CLOUDY    37  31  78 NE5       29.78F
$$

  *****  SOME NATIONAL WEATHER *****

CITY           SKY/WX    TMP DP  RH WIND       PRES   REMARKS
LA GUARDIA NY  LGT RAIN  41  36  82 NW17G23   29.39R
RALEIGH NC     FAIR      56  37  49 NW7       29.72R
ATLANTA GA     FAIR      58  35  42 NW7       29.87R
NEW ORLEANS LA FAIR      66  52  60 S10       29.91S
OKLAHOMA CITY  MOCLDY    71  29  21 W21G30    29.52R
ALBUQUERQUE NM FAIR      40  13  33 W30G39    29.77R
SALT LAKE CITY PTSUNNY   31  21  66 NE5       29.86R
LOS ANGELES CA PTSUNNY   54  42  64 W9        30.02R
BOISE ID       FAIR      34  22  61 NW16      29.91R WCI  24
SEATTLE WA     PTSUNNY   42  36  79 S3        30.14R
$$

*** WEATHER ACROSS MANITOBA...SASKATCHEWAN AND ONTARIO ***
                ***ONTARIO***

CITY           SKY/WX    TMP DP  RH WIND       PRES   REMARKS
GERALDTON      CLOUDY    32  32 100 NW5       29.78S FOG
THUNDER BAY    CLOUDY    34  28  80 W10       29.84R
SIOUX LOOKOUT  FRZ DRZL  27  23  86 W5        29.82R WCI  21
TORONTO        CLOUDY    34  27  75 N6        29.67S
BIG TROUT LK   LGT SNOW  30  28  93 VRB2      29.81R
PICKLE LAKE    LGT SNOW  32  32 100 W5        29.78R VSB 3/4
DRYDEN         CLOUDY    25  23  93 S5        29.82R WCI  19
KENORA         FLURRIES  25  23  93 S5        29.82R WCI  19
$$
                *** MANITOBA***

CITY           SKY/WX    TMP DP  RH WIND       PRES   REMARKS
BRANDON        CLOUDY    23  18  80 NW10      29.89R WCI  12
DAUPHIN        CLOUDY    21  18  86 NE5       29.93R WCI  15
ISLAND LAKE    FLURRIES  28  27  93 N5        29.83  WCI  23
PILOT MOUND      N/A     23  19  86 NW9         N/A  WCI  13
THE PAS        MOCLDY    12   7  79 NW12      29.96R WCI  -2
THOMPSON       FLURRIES  16  12  86 NW6       29.91S WCI   7
WINNIPEG       FLURRIES  23  21  93 W13       29.88R WCI  11
LYNN LAKE      FLURRIES   9   7  92 NW7       29.92R WCI  -3
CHURCHILL      FLURRIES  12  10  92 NW8       29.96R WCI   1
GILLAM         FLURRIES  18  14  86 N5        29.90R WCI  11
$$
                ***SASKATCHEWAN***

CITY           SKY/WX    TMP DP  RH WIND       PRES   REMARKS
ESTEVAN        LGT SNOW  16  14  93 NW15      29.92R VSB 1   WCI   1
KINDERSLEY     FLURRIES  10   7  85 W8        29.96R WCI  -1
LLOYDMINSTER   PTCLDY     5   3  92 S3        29.95R
PRINCE ALBERT  FLURRIES  12   5  73 NW6       29.99R WCI   3
REGINA         FLURRIES  16  12  86 NW12      29.94R WCI   3
YORKTON        CLOUDY    16  12  86 NW13      29.91R WC



USA.gov is the U.S. government's official web portal to all federal, state and local government web resources and services.